Litchfield, MN

6:28 AM CDT on August 27, 2016 (GMT -0500)
Litchfield Municipal

Weather History for KLJF - October, 2012

Change the Weather History Date:

Tuesday, October 23, 2012

  Actual Average Record
Temperature  
Mean Temperature 56 °F -  
Max Temperature 60 °F 57 °F 80 °F (1992)
Min Temperature 51 °F 34 °F 19 °F (1981)
Degree Days  
Heating Degree Days 10    
Growing Degree Days 6 (Base 50)    
Moisture  
Dew Point 55 °F    
Average Humidity 96    
Maximum Humidity 100    
Minimum Humidity 82    
Precipitation  
Precipitation 0.00 in - - ()
Sea Level Pressure  
Sea Level Pressure 29.75 in    
Wind  
Wind Speed 8 mph (ESE)    
Max Wind Speed 16 mph    
Max Gust Speed 17 mph    
Visibility 4 miles    
Events Fog , Rain , Thunderstorm    
Averages and records for this station are not official NWS values.
T = Trace of Precipitation, MM = Missing Value Source: NWS Daily Summary

Daily Weather History Graph

Daily Weather History Graph

Search for Another Location

Airport or City:

Trip Planner

Search our weather history database for the weather conditions in past years. The results will help you decide how hot, cold, wet, or windy it might be!

Date:

Astronomy

Oct. 23, 2012 Rise Set
Actual Time 7:45 AM CDT 6:18 PM CDT
Civil Twilight 7:15 AM CDT 6:48 PM CDT
Nautical Twilight 6:40 AM CDT 7:23 PM CDT
Astronomical Twilight 6:06 AM CDT 7:57 PM CDT
Moon 3:16 PM CDT (10/23) 1:22 AM CDT (10/23)
Length of Visible Light 11h 33m
Length of Day
10h 33m
Waxing Gibbous, 67% of the Moon is Illuminated
Oct 23
Waxing Gibbous
Oct 29
Full
Nov 6
Last Quarter
Nov 13
New
Nov 20
First Quarter

Hourly Weather History & Observations

Time (CDT) Temp. Dew Point Humidity Pressure Visibility Wind Dir Wind Speed Gust Speed Precip Events Conditions
12:13 AM 51.8 °F 46.4 °F 82% 29.85 in 10.0 mi East 10.4 mph - N/A   Overcast
12:33 AM 51.8 °F 46.4 °F 82% 29.84 in 10.0 mi East 11.5 mph - N/A   Overcast
12:53 AM 51.8 °F 46.4 °F 82% 29.84 in 10.0 mi East 10.4 mph - N/A   Overcast
1:13 AM 51.8 °F 46.4 °F 82% 29.84 in 10.0 mi East 8.1 mph - N/A   Overcast
1:33 AM 51.8 °F 46.4 °F 82% 29.83 in 10.0 mi East 12.7 mph - N/A   Overcast
1:53 AM 51.8 °F 46.4 °F 82% 29.82 in 10.0 mi ENE 8.1 mph - N/A   Overcast
2:13 AM 51.8 °F 46.4 °F 82% 29.82 in 10.0 mi East 10.4 mph 17.3 mph N/A   Overcast
2:33 AM 51.8 °F 48.2 °F 88% 29.80 in 10.0 mi East 10.4 mph - N/A   Overcast
2:53 AM 51.8 °F 48.2 °F 88% 29.80 in 10.0 mi ENE 10.4 mph - N/A   Overcast
3:13 AM 51.8 °F 48.2 °F 88% 29.79 in 10.0 mi East 10.4 mph - N/A   Overcast
3:33 AM 51.8 °F 48.2 °F 88% 29.79 in 10.0 mi East 9.2 mph - N/A Thunderstorm Overcast
3:53 AM 51.8 °F 48.2 °F 88% 29.77 in 10.0 mi East 12.7 mph - N/A Thunderstorm Overcast
4:13 AM 51.8 °F 48.2 °F 88% 29.77 in 7.0 mi East 11.5 mph - N/A   Overcast
4:33 AM 51.8 °F 50.0 °F 94% 29.77 in 7.0 mi NE 6.9 mph - N/A   Overcast
5:13 AM 51.8 °F 50.0 °F 94% 29.77 in 7.0 mi East 10.4 mph - N/A   Overcast
5:33 AM 51.8 °F 50.0 °F 94% 29.77 in 5.0 mi East 10.4 mph - N/A Rain , Thunderstorm Light Thunderstorms and Rain
5:53 AM 51.8 °F 50.0 °F 94% 29.77 in 4.0 mi East 9.2 mph - N/A   Overcast
6:33 AM 51.8 °F 51.8 °F 100% 29.76 in 2.0 mi East 6.9 mph - N/A   Overcast
6:53 AM 51.8 °F 51.8 °F 100% 29.75 in 1.8 mi East 8.1 mph - N/A   Overcast
7:13 AM 53.6 °F 51.8 °F 94% 29.75 in 1.5 mi East 8.1 mph - N/A   Overcast
7:33 AM 53.6 °F 51.8 °F 94% 29.76 in 1.5 mi East 9.2 mph - N/A   Overcast
7:53 AM 53.6 °F 53.6 °F 100% 29.76 in 1.5 mi East 8.1 mph - N/A   Overcast
8:13 AM 53.6 °F 53.6 °F 100% 29.75 in 1.5 mi East 8.1 mph - N/A   Overcast
8:33 AM 53.6 °F 53.6 °F 100% 29.75 in 1.2 mi East 11.5 mph - N/A   Overcast
8:53 AM 53.6 °F 53.6 °F 100% 29.75 in 1.0 mi East 16.1 mph - N/A   Overcast
9:13 AM 53.6 °F 53.6 °F 100% 29.75 in 1.0 mi ESE 11.5 mph 16.1 mph N/A   Overcast
9:33 AM 55.4 °F 53.6 °F 94% 29.74 in 0.8 mi ESE 12.7 mph - N/A   Overcast
9:53 AM 55.4 °F 55.4 °F 100% 29.73 in 0.2 mi East 10.4 mph - N/A Fog Fog
10:13 AM 55.4 °F 55.4 °F 100% 29.72 in 0.2 mi East 13.8 mph - N/A Fog Fog
10:53 AM 55.4 °F 55.4 °F 100% 29.72 in 0.2 mi East 11.5 mph - N/A Fog Fog
11:13 AM 55.4 °F 55.4 °F 100% 29.73 in 0.2 mi ESE 10.4 mph - N/A Fog Fog
11:33 AM 55.4 °F 55.4 °F 100% 29.73 in 0.2 mi ESE 9.2 mph - N/A Fog Fog
11:53 AM 55.4 °F 55.4 °F 100% 29.72 in 0.2 mi East 10.4 mph - N/A Fog Fog
12:13 PM 57.2 °F 57.2 °F 100% 29.72 in 0.2 mi East 6.9 mph - N/A Fog Fog
12:33 PM 57.2 °F 57.2 °F 100% 29.71 in 0.2 mi East 6.9 mph - N/A Fog Fog
12:53 PM 57.2 °F 57.2 °F 100% 29.70 in 0.2 mi East 6.9 mph - N/A Fog Fog
1:33 PM 59.0 °F 59.0 °F 100% 29.68 in 0.8 mi SSE 6.9 mph - N/A Rain Rain
1:53 PM 59.0 °F 59.0 °F 100% 29.68 in 0.8 mi SSE 5.8 mph - N/A   Light Drizzle
2:13 PM 59.0 °F 59.0 °F 100% 29.68 in 0.5 mi SSE 5.8 mph - N/A   Drizzle
2:33 PM 59.0 °F 59.0 °F 100% 29.68 in 0.5 mi SSE 3.5 mph - N/A   Drizzle
2:53 PM 59.0 °F 59.0 °F 100% 29.67 in 0.8 mi SSE 3.5 mph - N/A   Light Drizzle
3:13 PM 59.0 °F 59.0 °F 100% 29.67 in 0.8 mi SSE 4.6 mph - N/A   Light Drizzle
3:33 PM 59.0 °F 59.0 °F 100% 29.68 in 1.5 mi Calm Calm - N/A   Overcast
3:53 PM 59.0 °F 59.0 °F 100% 29.68 in 1.8 mi Calm Calm - N/A   Overcast
4:13 PM 60.8 °F 60.8 °F 100% 29.68 in 2.0 mi Calm Calm - N/A   Overcast
4:33 PM 60.8 °F 60.8 °F 100% 29.68 in 2.5 mi Calm Calm - N/A   Overcast
4:53 PM 60.8 °F 60.8 °F 100% 29.68 in 2.5 mi Calm Calm - N/A   Overcast
5:13 PM 60.8 °F 60.8 °F 100% 29.69 in 2.5 mi Calm Calm - N/A   Overcast
5:33 PM 60.8 °F 60.8 °F 100% 29.70 in 3.0 mi SSE 3.5 mph - N/A   Overcast
5:53 PM 60.8 °F 60.8 °F 100% 29.70 in 3.0 mi Calm Calm - N/A   Overcast
6:13 PM 60.8 °F 60.8 °F 100% 29.71 in 3.0 mi Calm Calm - N/A   Overcast
6:33 PM 59.0 °F 59.0 °F 100% 29.72 in 5.0 mi Calm Calm - N/A   Overcast
6:53 PM 59.0 °F 59.0 °F 100% 29.72 in 5.0 mi Calm Calm - N/A   Overcast
7:13 PM 59.0 °F 59.0 °F 100% 29.72 in 5.0 mi Calm Calm - N/A   Overcast
7:33 PM 59.0 °F 59.0 °F 100% 29.74 in 5.0 mi Calm Calm - N/A   Mist
7:53 PM 57.2 °F 57.2 °F 100% 29.74 in 5.0 mi Calm Calm - N/A   Overcast
8:13 PM 57.2 °F 57.2 °F 100% 29.75 in 7.0 mi SSW 3.5 mph - N/A   Overcast
8:33 PM 57.2 °F 57.2 °F 100% 29.75 in 5.0 mi Calm Calm - N/A   Overcast
8:53 PM 57.2 °F 57.2 °F 100% 29.76 in 5.0 mi SSW 3.5 mph - N/A   Overcast
9:13 PM 57.2 °F 57.2 °F 100% 29.76 in 4.0 mi SSW 3.5 mph - N/A   Overcast
9:33 PM 57.2 °F 57.2 °F 100% 29.77 in 4.0 mi SSW 3.5 mph - N/A   Overcast
9:53 PM 57.2 °F 57.2 °F 100% 29.78 in 4.0 mi SW 3.5 mph - N/A   Overcast
10:13 PM 57.2 °F 57.2 °F 100% 29.78 in 5.0 mi Calm Calm - N/A   Overcast
10:33 PM 57.2 °F 57.2 °F 100% 29.78 in 5.0 mi Calm Calm - N/A   Mist
10:53 PM 57.2 °F 57.2 °F 100% 29.78 in 5.0 mi Calm Calm - N/A   Mostly Cloudy
11:33 PM 57.2 °F 57.2 °F 100% 29.79 in 4.0 mi Calm Calm - N/A   Overcast
11:53 PM 57.2 °F 57.2 °F 100% 29.79 in 5.0 mi Calm Calm - N/A   Overcast